Location: Arcones
(41.1182°N, 3.7238°W)
Time: 04:22:51
(UTC+00:00)

IRIDIUM 106 - Pass Details

Date: 21 March 2026
Orbit: 776 x 780 km, 86.4° (Epoch: 17 April)

Event Time Altitude Azimuth Distance (km) Brightness Sun altitude
Exits shadow 19:45:00 22° 87° (E) 1,652 5.5 -15.2°
Maximum altitude 19:45:21 22° 81° (E) 1,645 5.5 -15.2°
Drops below altitude 10° 19:49:18 10° 32° (NNE) 2,338 6.6 -15.9°
Sets 19:52:07 0° 17° (NNE) 3,270 7.6 -16.4°
